Weather History for KPWM - April, 2013

Change the Weather History Date:

Wednesday, April 17, 2013

  Actual Average Record
Temperature  
Mean Temperature 53 °F 45 °F  
Max Temperature 63 °F 54 °F 83 °F (2012)
Min Temperature 43 °F 35 °F 22 °F (2014)
Degree Days  
Heating Degree Days 12 20  
Month to date heating degree days 380 395  
Since 1 July heating degree days 5907 6413  
Cooling Degree Days 0 0  
Month to date cooling degree days 0 0  
Year to date cooling degree days 0 0  
Growing Degree Days 4 (Base 50)    
Moisture  
Dew Point 31 °F    
Average Humidity 51    
Maximum Humidity 77    
Minimum Humidity 25    
Precipitation  
Precipitation 0.00 in 0.14 in 2.02 in (1954)
Month to date precipitation 1.85 2.49  
Year to date precipitation 10.97 13.36  
Snow  
Snow 0.00 in 0.10 in 5.50 in (1992)
Month to date snowfall 0.2 2.3  
Since 1 July snowfall 98.0 61.4  
Snow Depth 0.00 in    
Sea Level Pressure  
Sea Level Pressure 30.17 in    
Wind  
Wind Speed 11 mph (NW)    
Max Wind Speed 23 mph    
Max Gust Speed 29 mph    
Visibility 10 miles    
Events      
T = Trace of Precipitation, MM = Missing Value Source: NWS Daily Summary

Daily Weather History Graph

Daily Weather History Graph

Search for Another Location

Airport or City:

Trip Planner

Search our weather history database for the weather conditions in past years. The results will help you decide how hot, cold, wet, or windy it might be!

Date:

Astronomy

Apr. 17, 2013 Rise Set
Actual Time 5:54 AM EDT 7:27 PM EDT
Civil Twilight 5:24 AM EDT 7:57 PM EDT
Nautical Twilight 4:48 AM EDT 8:33 PM EDT
Astronomical Twilight 4:09 AM EDT 9:13 PM EDT
Moon 11:02 AM EDT (4/17) 1:07 AM EDT (4/17)
Length of Visible Light 14h 32m
Length of Day
13h 32m
Waxing Crescent, 42% of the Moon is Illuminated
Apr 17
Waxing Crescent
Apr 18
First Quarter
Apr 25
Full
May 2
Last Quarter
May 9
New

Hourly Weather History & Observations

Time (EDT) Temp. Windchill Dew Point Humidity Pressure Visibility Wind Dir Wind Speed Gust Speed Precip Events Conditions
12:51 AM 57.0 °F - 50.0 °F 77% 29.97 in 10.0 mi SW 9.2 mph - N/A   Mostly Cloudy
1:51 AM 57.0 °F - 50.0 °F 77% 29.99 in 10.0 mi WSW 8.1 mph - N/A   Clear
2:51 AM 57.0 °F - 48.9 °F 74% 30.02 in 10.0 mi NW 15.0 mph - N/A   Mostly Cloudy
3:51 AM 52.0 °F - 37.0 °F 57% 30.04 in 10.0 mi WNW 9.2 mph - N/A   Clear
4:51 AM 48.9 °F - 37.0 °F 64% 30.06 in 10.0 mi North 10.4 mph - N/A   Clear
5:51 AM 46.9 °F - 35.1 °F 63% 30.09 in 10.0 mi NW 5.8 mph - N/A   Clear
6:51 AM 48.0 °F - 32.0 °F 54% 30.11 in 10.0 mi WNW 11.5 mph - N/A   Clear
7:51 AM 50.0 °F - 30.0 °F 46% 30.13 in 10.0 mi NW 9.2 mph - N/A   Clear
8:51 AM 52.0 °F - 30.0 °F 43% 30.15 in 10.0 mi NNW 13.8 mph - N/A   Clear
9:51 AM 54.0 °F - 30.0 °F 40% 30.16 in 10.0 mi WNW 13.8 mph - N/A   Clear
10:51 AM 55.9 °F - 28.9 °F 36% 30.17 in 10.0 mi WNW 16.1 mph 20.7 mph N/A   Clear
11:51 AM 57.0 °F - 28.9 °F 34% 30.17 in 10.0 mi West 15.0 mph - N/A   Clear
12:51 PM 60.1 °F - 28.9 °F 31% 30.17 in 10.0 mi NNW 11.5 mph - N/A   Partly Cloudy
1:51 PM 61.0 °F - 28.0 °F 29% 30.15 in 10.0 mi North 13.8 mph 21.9 mph N/A   Partly Cloudy
2:51 PM 62.1 °F - 28.0 °F 28% 30.17 in 10.0 mi NW 10.4 mph 18.4 mph N/A   Clear
3:51 PM 62.1 °F - 27.0 °F 26% 30.18 in 10.0 mi North 12.7 mph 26.5 mph N/A   Clear
4:51 PM 61.0 °F - 26.1 °F 26% 30.20 in 10.0 mi NNW 13.8 mph 24.2 mph N/A   Clear
5:51 PM 59.0 °F - 25.0 °F 27% 30.23 in 10.0 mi NW 15.0 mph - N/A   Clear
6:51 PM 57.0 °F - 24.1 °F 28% 30.25 in 10.0 mi NNW 10.4 mph 20.7 mph N/A   Clear
7:51 PM 52.0 °F - 24.1 °F 34% 30.28 in 10.0 mi North 8.1 mph - N/A   Clear
8:51 PM 50.0 °F - 24.1 °F 36% 30.32 in 10.0 mi North 6.9 mph - N/A   Clear
9:51 PM 48.9 °F - 23.0 °F 36% 30.33 in 10.0 mi North 4.6 mph - N/A   Clear
10:51 PM 48.0 °F - 24.1 °F 39% 30.33 in 10.0 mi North 8.1 mph - N/A   Clear
11:51 PM 46.0 °F 43.1 °F 23.0 °F 40% 30.34 in 10.0 mi North 5.8 mph - N/A   Clear